Terminal Aerodrome Forecast
Issued by NWS

Home | Current Version | Previous Version | Text Only | Print | Product List | Glossary On
Versions: 1 2 3 4 5 6 7 8 9 10 11 12 13 14 15 16 17 18 19 20 21 22 23 24 25 26 27 28 29 30 31 32 33 34 35 36 37 38 39 40 41 42 43 44 45 46
000
FTUS45 KBOU 250215 AAB
TAFAPA
TAF AMD
KAPA 250215Z 2502/2524 02012KT P6SM SCT040 BKN060
     FM250400 11008KT P6SM SCT050 BKN070
     FM250600 17007KT P6SM SCT060 SCT120
     FM251500 03006KT P6SM SCT040 BKN060
     FM251900 06006KT P6SM SCT050 BKN080
     FM252200 09007KT P6SM VCSH SCT050 BKN080=

USA.gov is the U.S. government's official web portal to all federal, state and local government web resources and services.